Fujigaoka, Japan

3:12 PM JST on December 14, 2017 (GMT +0900)
Fujigaoka

Weather History for 47636 - April, 2017

Change the Weather History Date:

Friday, April 21, 2017

  Actual Average Record
Temperature  
Mean Temperature 61 °F -  
Max Temperature 66 °F 73 °F - ()
Min Temperature 56 °F 54 °F - ()
Degree Days  
Heating Degree Days 4    
Growing Degree Days 11 (Base 50)    
Moisture  
Dew Point 44 °F    
Average Humidity 43    
Maximum Humidity 52    
Minimum Humidity 35    
Precipitation  
Precipitation 0.00 in 0.20 in - ()
Sea Level Pressure  
Sea Level Pressure 29.78 in    
Wind  
Wind Speed 3 mph ()    
Max Wind Speed 9 mph    
Max Gust Speed -    
Visibility 9.0 miles    
Events      
T = Trace of Precipitation, MM = Missing Value Source: Averaged Metar Reports

Daily Weather History Graph

Daily Weather History Graph

Search for Another Location

Airport or City:

Trip Planner

Search our weather history database for the weather conditions in past years. The results will help you decide how hot, cold, wet, or windy it might be!

Date:

Astronomy

Apr. 21, 2017 Rise Set
Actual Time 5:12 AM JST 6:29 PM JST
Civil Twilight 4:46 AM JST 6:55 PM JST
Nautical Twilight 4:14 AM JST 7:27 PM JST
Astronomical Twilight 3:42 AM JST 8:00 PM JST
Moon 1:50 AM JST (4/21) 12:48 PM JST (4/21)
Length of Visible Light 14h 09m
Length of Day
13h 16m
Waning Crescent, 33% of the Moon is Illuminated
Apr 21
Waning Crescent
Apr 26
New
May 3
First Quarter
May 11
Full
May 19
Last Quarter

Hourly Weather History & Observations

Time (JST) Temp. Dew Point Humidity Pressure Visibility Wind Dir Wind Speed Gust Speed Precip Events Conditions
12:00 AM 58 °F 42 °F 45% 29.87 in - ESE 4.6 mph - -  
2:00 AM 57 °F 42 °F 46% 29.86 in - ESE 3.5 mph - -  
3:00 AM 58 °F 41 °F 43% 29.86 in 9 mi NE 3.5 mph - -   Scattered Clouds
4:00 AM 57 °F 42 °F 46% 29.83 in - North 2.3 mph - -  
5:00 AM 57 °F 42 °F 46% 29.81 in - West 1.2 mph - -  
6:00 AM 58 °F 42 °F 45% 29.84 in 9 mi SSW 4.6 mph - -   Overcast
7:00 AM 57 °F 44 °F 52% 29.84 in - North 8.1 mph - -  
8:00 AM 58 °F 44 °F 48% 29.83 in - NE 3.5 mph - -  
9:00 AM 59 °F 44 °F 47% 29.84 in 9 mi NNE 2.3 mph - -   Partly Cloudy
10:00 AM 60 °F 44 °F 44% 29.83 in - ENE 2.3 mph - -  
11:00 AM 61 °F 45 °F 44% 29.79 in - South 2.3 mph - -  
1:00 PM 64 °F 45 °F 39% 29.76 in - NE 2.3 mph - -  
2:00 PM 66 °F 46 °F 38% 29.74 in - WNW 3.5 mph - -  
3:00 PM 65 °F 45 °F 37% 29.73 in 9 mi North 5.8 mph - -   Partly Cloudy
4:00 PM 65 °F 45 °F 37% 29.72 in - NW 2.3 mph - -  
5:00 PM 65 °F 44 °F 36% 29.71 in - West 3.5 mph - -  
6:00 PM 64 °F 45 °F 39% 29.71 in 9 mi NW 2.3 mph - -   Scattered Clouds
7:00 PM 63 °F 47 °F 44% 29.71 in - West 3.5 mph - -  
8:00 PM 62 °F 47 °F 48% 29.73 in - WNW 3.5 mph - -  
9:00 PM 62 °F 43 °F 39% 29.75 in 9 mi NNW 8.1 mph - -   Clear
10:00 PM 61 °F 41 °F 35% 29.75 in - NNW 6.9 mph - -  
11:00 PM 59 °F 40 °F 38% 29.75 in - NW 9.2 mph - -